EHI
0 0 0 0 0 0 0 0 0 0 0 0 0 0 0 0 0 0 0 0 0 0 0 0 0 0 0 0 0 0 0 0 0 0 0 0 0 0 0 0 0 0 0 0
0 0 0 0 0 0 0 0 0 0 0 0 0 0 0 0 0 0 0 0 0 0 0 0 0 0 0 0 0 0 0 0 0 0 0 0 0 0 0 0 0 0 0 0
0 0 0 0 0 0 0 0 0 0 0 0 0 0 0 0 0 0 0 0 0 0 0 0 0 0 0 0 0 0 0 0 0 0 0 0 0 0 0 0 0 0 0 0
0 0 0 0 0 0 0 0 0 0 0 0 0 0 0 0 0 0 0 0 0 0 0 0 0 0 0 0 0 0 0 0 0 0 0 0 0 0 0 0 0 0 0 0
0 0 0 0 0 0 0 0 0 0 0 0 0 0 0 0 0 0 0 0 0 0 0 0 0 0 0 0 0 0 0 0 0 0 0 0 0 0 0 0 0 0 0 0
0 0 0 0 0 0 0 0 0 0 0 0 0 0 0 0 0 0 0 0 0 0 0 0 0 0 0 0 0 0 0 0 0 0 0 0 0 0 0 0 0 0 0 0
0 0 0 0 0 0 0 0 0 0 0 0 0 0 0 0 0 0 0 0 0 0 0 0 0 0 0 0 0 0 0 0 0 0 0 0 0 0 0 0 0 0 0 0
0 0 0 0 0 0 0 0 0 0 0 0 0 0 0 0 0 0 0 0 0 0 0 0 0 0 0 0 0 0 0 0 0 0 0 0 0 0 0 0 0 0 0 0
0 0 0 0 0 0 0 0 0 0 0 0 0 0 0 0 0 0 0 0 0 0 0 0 0 0 0 0 0 0 0 0 0 0 0 0 0 0 0 0 0 0 0 0
0 0 0 0 0 0 0 0 0 0 0 0 0 0 0 0 0 0 0 0 0 0 0 0 0 0 0 0 0 0 0 0 0 0 0 0 0 0 0 0 0 0 0 0
0 0 0 0 0 0 0 0 0 0 0 0 0 0 0 0 0 0 0 0 0 0 0 0 0 0 0 0 0 0 0 0 0 0 0 0 0 0 0 0 0 0 0 0
0 0 0 0 0 0 0 0 0 0 0 0 0 0 0 0 0 0 0 0 0 0 0 0 0 0 0 0 0 0 0 0 0 0 0 0 0 0 0 0 0 0 0 0
0 0 0 0 0 0 0 0 0 0 0 0 0 0 0 0 0 0 0 0 0 0 0 0 0 0 0 0 0 0 0 0 0 0 0 0 0 0 0 0 0 0 0 0
0 0 0 0 0 0 0 0 0 0 0 0 0 0 0 0 0 0 0 0 0 0 0 0 0 0 0 0 0 0 0 0 0 0 0 0 0 0 0 0 0 0 0 0
0 0 0 0 0 0 0 0 0 0 0 0 0 0 0 0 0 0 0 0 0 0 0 0 0 0 0 0 0 0 0 0 0 0 0 0 0 0 0 0 0 0 0 0
0 0 0 0 0 0 0 0 0 0 0 0 0 0 0 0 0 0 0 0 0 0 0 0 0 0 0 0 0 0 0 0 0 0 0 0 0 0 0 0 0 0 0 0
0 0 0 0 0 0 0 0 0 0 0 0 0 0 0 0 0 0 0 0 0 0 0 0 0 0 0 0 0 0 0 0 0 0 0 0 0 0 0 0 0 0 0 0
0 0 0 0 0 0 0 0 0 0 0 0 0 0 0 0 0 0 0 0 0 0 0 0 0 0 0 0 0 0 0 0 0 0 0 0 0 0 0 0 0 0 0 0
0 0 0 0 0 0 0 0 0 0 0 0 0 0 0 0 0 0 0 0 0 0 0 0 0 0 0 0 0 0 0 0 0 0 0 0 0 0 0 0 0 0 0 0
0 0 0 0 0 0 0 0 0 0 0 0 0 0 0 0 0 0 0 0 0 0 0 0 0 0 0 0 0 0 0 0 0 0 0 0 0 0 0 0 0 0 0 0
0 0 0 0 0 0 0 0 0 0 0 0 0 0 0 0 0 0 0 0 0 0 0 0 0 0 0 0 0 0 0 0 0 0 0 0 0 0 0 0 0 0 0 0
0 0 0 0 0 0 0 0 0 0 0 0 0 0 0 0 0 0 0 0 0 0 0 0 0 0 0 0 0 0 0 0 0 0 0 0 0 0 0 0 0 0 0 0
0 0 0 0 0 0 0 0 0 0 0 0 0 0 0 0 0 0 0 0 0 0 0 0 0 0 0 0 0 0 0 0 0 0 0 0 0 0 0 0 0 0 0 0
0 0 0 0 0 0 0 0 0 0 0 0 0 0 0 0 0 0 0 0 0 0 0 0 0 0 0 0 0 0 0 0 0 0 0 0 0 0 0 0 0 0 0 0
0 0 0 0 0 0 0 0 0 0 0 0 0 0 0 0 0 0 0 0 0 0 0 0 0 0 0 0 0 0 0 0 0 0 0 0 0 0 0 0 0 0 0 0
0 0 0 0 0 0 0 0 0 0 0 0 0 0 0 0 0 0 0 0 0 0 0 0 0 0 0 0 0 0 0 0 0 0 0 0 0 0 0 0 0 0 0 0
0 0 0 0 0 0 0 0 0 0 0 0 0 0 0 0 0 0 0 0 0 0 0 0 0 0 0 0 0 0 0 0 0 0 0 0 0 0 0 0 0 0 0 0
Wind_Speed
16 18 19 21 23 20 21 21 20 24 26 27 22 18 16 13 8 5 2 5 8 11 12 13 14 15 15 16 16 17 18 17 16 15 15 14 13 12 10 9 7 6 4 3
14 17 18 21 22 20 19 18 21 24 26 20 17 13 11 9 6 4 3 8 11 12 14 14 15 15 16 16 16 16 17 17 16 15 14 13 12 11 10 8 6 5 3 1
9 12 14 12 9 10 11 12 13 15 17 15 13 11 9 7 5 5 7 11 12 13 13 13 14 16 17 17 16 16 17 17 15 15 14 12 11 10 8 7 5 4 2 1
7 9 7 3 1 7 11 12 12 15 16 13 10 8 7 5 2 5 10 12 12 12 13 13 14 15 16 16 17 17 17 16 14 14 13 11 10 9 7 5 3 2 0 2
4 7 11 8 3 4 6 7 7 9 12 10 6 4 4 6 4 8 12 13 13 13 14 15 15 16 17 17 16 16 16 15 13 13 12 10 9 7 5 4 2 1 1 3
4 6 7 5 5 3 4 5 8 9 8 6 4 2 5 6 9 12 14 13 14 14 15 15 15 16 17 17 16 15 14 14 12 11 10 9 8 6 4 2 1 1 2 3
8 7 9 7 5 3 3 7 11 9 7 3 2 4 5 7 11 13 14 15 15 15 14 14 15 16 17 16 15 14 14 13 11 10 9 8 7 5 3 2 0 2 4 4
6 7 8 2 2 3 5 6 7 6 4 2 6 7 9 11 12 13 14 15 15 14 14 13 14 16 17 15 14 14 13 12 10 9 7 6 6 4 2 1 2 3 5 5
7 8 5 2 5 6 5 7 5 3 1 7 8 8 10 11 12 13 14 13 13 15 15 13 12 14 17 14 14 14 13 11 10 8 7 5 4 3 1 1 2 3 4 5
7 10 9 8 6 3 2 3 3 1 3 7 9 12 13 12 12 13 13 13 14 16 16 14 13 13 15 14 13 13 12 10 8 7 6 4 3 1 1 2 3 4 5 6
8 9 8 3 2 2 3 4 5 6 6 9 14 14 14 13 13 13 13 13 13 14 15 15 14 14 13 13 13 13 11 9 7 5 4 3 2 1 2 2 4 6 6 6
5 3 3 3 3 3 4 5 7 9 11 11 12 15 15 14 13 13 14 13 14 15 16 15 14 13 11 10 11 11 9 7 5 4 3 2 1 1 1 3 6 7 8 9
3 1 1 2 3 4 6 7 8 10 12 13 13 13 15 15 13 14 14 15 15 16 15 15 14 12 10 9 9 9 8 6 4 3 2 1 2 3 4 3 4 6 8 11
3 3 2 2 4 7 10 11 12 13 13 13 14 14 15 16 15 15 15 14 15 16 15 14 14 11 9 9 9 9 8 6 4 3 2 1 2 3 4 5 7 6 8 11
2 2 3 8 10 10 11 12 13 13 13 13 13 14 15 16 16 15 14 14 15 15 14 13 13 10 8 8 9 8 6 4 3 2 2 2 2 3 4 5 6 7 8 9
4 6 9 10 11 11 11 12 13 13 12 14 13 14 14 16 16 15 13 13 14 14 12 12 11 9 7 8 8 6 5 5 3 2 2 2 3 3 4 5 6 7 7 8
7 7 8 9 11 12 11 10 12 13 13 14 15 15 16 17 16 14 12 11 13 12 11 11 10 8 7 6 6 4 4 4 3 2 2 3 3 4 5 5 6 7 7 9
4 5 9 12 14 14 12 12 12 13 13 14 16 15 16 16 15 14 13 13 13 12 9 9 9 8 7 6 4 3 3 2 2 2 2 3 4 4 5 5 7 8 8 9
3 6 9 11 12 13 14 14 13 13 14 15 15 14 14 14 14 14 13 13 13 11 7 8 11 8 7 6 4 3 3 2 2 2 3 4 4 4 5 5 6 7 8 8
4 7 11 12 13 13 14 14 15 14 13 14 15 15 14 13 13 13 12 9 6 7 8 8 8 6 5 5 4 2 2 2 2 3 3 4 4 5 5 6 7 7 8 8
7 10 12 13 13 13 14 16 16 16 14 14 15 16 15 13 12 11 11 9 6 7 8 9 5 4 4 3 3 2 2 2 2 3 4 4 5 5 6 6 7 7 7 8
8 10 12 13 14 13 12 12 14 16 15 14 15 15 15 13 11 9 8 7 8 9 6 5 4 5 5 4 2 2 2 2 3 3 4 4 5 5 6 7 7 7 7 8
8 9 12 13 14 14 13 12 13 14 15 15 15 15 13 11 9 9 8 6 7 9 6 5 6 7 5 2 2 2 2 3 3 4 4 5 5 5 6 7 7 7 8 8
9 10 11 12 14 15 15 13 11 11 13 12 12 12 12 10 7 5 7 11 11 10 6 6 7 6 4 2 1 2 3 3 4 4 5 5 5 5 6 6 7 7 8 10
9 11 12 13 13 12 14 15 15 14 13 11 11 9 7 6 7 8 8 9 11 9 5 5 5 4 2 1 2 3 3 4 5 5 5 5 5 6 6 6 7 8 8 8
9 9 8 8 8 10 11 11 11 10 10 10 8 7 7 8 10 8 7 7 8 7 4 2 2 2 2 2 3 4 4 5 5 5 5 6 6 7 6 7 9 8 8 8
9 8 8 9 8 8 9 10 11 11 10 11 10 7 8 8 7 7 7 5 4 3 2 1 1 2 2 3 4 4 4 4 5 5 5 6 6 6 7 8 8 8 8 9
Wind_Direction
259 272 274 270 270 263 249 246 254 266 272 280 287 291 290 288 287 283 248 156 144 138 135 134 134 133 131 131 133 132 129 125 124 124 123 123 124 124 124 123 122 125 129 132
272 270 271 273 272 268 262 253 252 265 274 281 291 292 290 282 272 250 187 147 137 133 134 136 136 134 132 131 132 129 125 123 123 124 124 123 124 125 123 123 125 130 129 138
283 300 294 272 270 272 264 255 254 261 270 290 299 303 302 292 259 222 159 143 139 139 139 138 139 136 133 131 128 124 122 123 125 125 124 124 125 126 126 126 130 133 134 283
289 305 279 294 288 285 285 279 264 261 274 288 298 313 321 321 236 154 142 139 137 135 133 132 131 130 127 127 125 123 122 124 126 126 125 127 127 125 124 126 132 134 91 319
271 286 283 290 301 300 302 299 318 292 287 292 295 299 7 22 97 130 134 132 132 132 131 130 131 132 128 124 124 123 124 126 128 129 129 130 127 125 125 130 128 102 312 305
257 282 281 311 347 311 272 312 358 344 327 319 318 29 38 45 94 109 116 120 124 126 128 129 132 133 126 125 124 124 125 125 125 127 127 126 125 123 120 118 98 316 295 297
240 259 273 293 317 290 321 338 334 335 339 338 30 48 76 90 98 107 114 119 124 126 127 130 134 129 123 121 120 120 120 118 117 117 117 118 117 115 117 111 316 305 304 301
209 231 257 302 317 307 321 315 312 321 343 87 103 98 99 102 105 109 114 120 123 121 121 126 130 126 118 116 118 118 117 114 113 113 112 116 117 116 111 60 315 317 314 312
219 241 282 300 271 294 304 292 304 315 356 134 122 114 111 109 110 113 116 119 120 120 119 118 119 120 117 120 123 120 116 114 113 112 109 113 114 112 104 349 324 321 317 313
256 264 274 283 288 299 322 309 327 328 150 146 131 126 120 116 115 115 116 119 122 119 115 111 110 111 117 123 124 121 119 118 118 116 114 111 102 83 14 342 327 319 315 314
253 273 286 282 333 5 58 65 73 83 106 127 127 125 123 118 116 116 116 117 118 116 114 113 113 113 117 123 124 120 118 117 115 111 114 108 91 29 342 338 324 320 319 318
247 281 281 338 40 66 85 85 97 103 101 106 117 120 117 113 114 115 115 115 113 112 113 114 114 112 115 121 123 121 119 117 113 113 106 86 36 354 239 292 318 318 320 320
269 44 50 84 82 87 96 99 101 104 110 111 110 113 114 112 112 113 114 115 115 115 114 114 111 108 110 114 116 115 116 115 112 108 94 58 7 345 334 312 296 309 323 327
201 162 178 156 114 107 107 105 101 99 101 105 110 111 111 111 112 112 113 114 114 113 112 111 107 103 106 109 108 107 107 104 103 95 75 34 359 342 333 328 326 326 329 329
188 196 135 119 117 116 117 117 109 106 107 106 109 112 115 115 113 112 114 116 113 110 110 110 107 104 107 108 107 106 105 104 101 91 65 19 350 334 327 322 318 319 321 327
108 107 123 130 132 133 134 129 121 120 119 117 114 113 113 112 112 113 117 121 118 115 115 113 109 110 110 110 108 104 100 98 90 74 42 6 345 334 328 324 320 321 323 328
144 148 150 151 151 148 144 138 133 131 128 123 122 122 120 117 113 111 108 107 107 109 112 113 112 112 108 108 107 104 102 98 79 56 24 355 337 332 327 321 319 319 319 322
206 184 175 166 157 149 140 134 133 131 129 129 129 128 127 125 123 119 117 113 106 100 99 108 113 112 107 104 100 96 93 82 56 28 1 343 335 329 321 318 317 317 318 321
175 161 157 156 154 146 140 137 135 131 132 135 133 128 124 122 123 124 125 123 120 117 117 121 120 115 109 102 97 89 83 70 40 10 347 333 326 322 320 317 316 317 317 317
139 144 143 142 142 140 137 136 134 133 136 135 129 125 123 125 127 126 121 111 107 119 128 128 122 114 107 99 91 80 69 42 9 348 334 327 324 322 319 317 316 315 314 313
139 139 138 137 135 135 138 140 139 137 138 139 136 132 130 129 129 127 123 114 113 124 127 127 118 114 104 98 86 71 47 13 347 335 327 322 319 317 316 315 313 310 310 309
141 140 137 135 133 132 136 137 136 136 135 132 129 129 129 129 125 113 103 117 133 134 126 121 117 113 106 96 73 50 16 347 332 324 318 316 314 312 311 311 308 307 305 305
137 137 137 137 135 130 126 129 134 135 136 137 137 137 134 132 131 127 121 128 134 132 125 120 119 112 99 78 51 15 345 332 324 318 313 309 305 303 302 303 301 302 302 303
133 132 130 129 129 127 125 124 120 120 121 120 124 129 130 124 107 99 121 135 135 128 117 115 110 98 82 50 10 341 329 323 317 309 304 302 300 297 295 296 297 298 298 300
129 130 135 139 136 130 126 123 118 117 114 111 111 109 107 111 120 124 124 128 129 119 105 97 88 77 51 5 339 326 320 313 307 306 306 304 299 297 294 294 294 295 296 296
136 138 138 133 130 133 135 132 128 129 126 119 109 102 102 104 111 113 112 115 116 111 102 85 58 32 355 334 323 319 314 310 309 305 298 295 294 293 291 294 296 293 292 293
125 125 121 118 125 134 133 131 131 133 133 129 121 118 117 115 113 113 113 110 109 105 99 77 25 347 330 323 316 313 308 303 300 296 293 290 289 288 289 291 291 291 292 291